FENGYUN 1C DEB, 30326

Orbit data source: Space-Track

FENGYUN 1C DEB, 30326 is space debris in SSO originally from a launch on Mon, 10 May 1999 UTC launched from the Taiyaun Space Center, China (TSC). Fengyun 1C debris stems from the Chinese weather satellite Fengyun-1C, which was intentionally destroyed by a Chinese anti-satellite missile in 2007. This event dramatically increased the amount of space debris, with thousands of trackable fragments posing hazards to satellites and human spaceflight. The Fengyun 1C debris cloud has become a focal point in discussions about space sustainability and the need for international regulations to prevent the creation of new debris.

Loading next visibility...
FENGYUN 1C DEB details
Identifier
30326, 1999-025AAM
Orbit
SSO
Last TLE update21 hours ago
Origin
Flag of CNCASC (CN / PRC)
ManufacturerUnknown
MissionSpacecraft
Bus & MotorUnknown
MassUnknown
Launch date (UTC)
1999-05-10 (26 years ago)
Launch vehicleUnknown
Launch site
Taiyaun Space Center, China (TSC)
Object type
Payload
Rocket body
Debris
Shape & HBRUnknown
Radar Cross SectionSmall (<0.1 m²)

Expand to show TLE details & history

TLE from 21 hours ago
0 FENGYUN 1C DEB
1 30326U 99025AAM 24355.71678871  .00000372  00000-0  33603-3 0  9993
2 30326  98.6839 263.6342 0141167 282.8322  75.7096 13.85261337905122
Epoch: 2024-12-20T17:12Z
Definitive object data (Epoch: 2024-12-20T17:12:10.544Z)
Latitude0.00005°
Longitude-84.18804°
Altitude924.007 km
Speed7.402 km/s
True Right ascension17h 34m 32s
True Declination0° 00' 00"
Sunlit
Object was in daylight at TLE epoch
Visualization TLE readout
Latitude74.5366°
Longitude-116.68782°
Altitude1,052.707 km
Speed7.284 km/s
Apparent Right ascension00h 15m 37s
Apparent Declination42° 41' 04"
Sunlit
Object is in daylight
Visualization observer readout
Local Sidereal Time13:24:53
Azimuth12.709° NNE
Elevation-5.925°
Doppler factor1
Orbital elements
Apogee altitude1,045.831 km
Perigee altitude839.145 km
Semi-major axis7,320.625 km
Eccentricity0.0141167
Inclination98.6839°
RAAN263.6342°
Arg. of periapsis282.8322°
True anomaly77.28386°
Mean anomaly75.7096°
Eccentric anomaly76.49607°
Mean motion3.46514 °/min
BSTAR0.00033603
Orbital period103.89 mins
Loading maneuver chart data...
Loading historical data...
Loading historical data...
Loading historical data...
Loading historical data...
Loading historical data...
Loading historical data...
Loading historical data...

FENGYUN 1C DEB Visibility forecast

Observer location: undefined°, undefined

Span
Click to sort rows by Start time (UTC) header in descending order
Start Az.
Max El. time (UTC)
Max El. Az.
Max El.
End time (UTC)
End Az.
11 mins2024-12-21 17:34:46.682Z147.259° SSE2024-12-21 17:40:46.682Z56.872° ENE39.831°2024-12-21 17:45:46.682Z356.493° N
7 mins2024-12-21 19:20:46.682Z235.583° WSW2024-12-21 19:23:46.682Z273.157° WNW20.385°2024-12-21 19:27:46.682Z314.92° NW
9 mins2024-12-22 06:13:46.682Z38.39° NE2024-12-22 06:17:46.682Z94.665° ESE32.199°2024-12-22 06:22:46.682Z160.519° S
10 mins2024-12-22 07:55:46.682Z350.666° N2024-12-22 08:00:46.682Z285.834° WNW29.375°2024-12-22 08:05:46.682Z232.074° WSW
|